Weather Roundup
Issued by NWS

Home | Current Version | Previous Version | Text Only | Print | Product List | Glossary On
Versions: 1 2 3 4 5 6 7 8 9 10 11 12 13 14 15 16 17 18 19 20 21 22 23 24 25 26 27 28 29 30 31 32 33 34 35 36 37 38 39 40 41 42 43 44 45 46 47 48 49 50
000
NZUS93 KARX 212159
HRRWXR

CURRENT HOURLY OBSERVATIONS ACROSS
MUCH OF THE UPPER MISSISSIPPI VALLEY
NATIONAL WEATHER SERVICE LA CROSSE WI
400 PM CST TUE FEB 21 2017


...SOUTHEAST MINNESOTA...


CITY           SKY/WX    TMP DP  RH WIND       PRES   REMARKS
ROCHESTER      SUNNY     55  45  68 S18G28    29.79F
ROCHESTER/MAYO FAIR      58  43  56 S17G26    29.78F
WINONA         SUNNY     61  41  48 S6        29.80F
AUSTIN         MOSUNNY   54  45  71 S14       29.79F
ALBERT LEA     MOSUNNY   57  45  62 S10G17    29.77F
DODGE CENTER   NOT AVBL
PRESTON        MOSUNNY   54  42  63 S14G20    29.81F
OWATONNA       SUNNY     61  45  55 S20       29.75S
FARIBAULT      SUNNY     61  45  55 S14G20    29.74F
$$

...ELSEWHERE IN MINNESOTA...


CITY           SKY/WX    TMP DP  RH WIND       PRES   REMARKS
MINNEAPOLIS    PTSUNNY   61  42  49 S9G18     29.71F
INTNL FALLS    SUNNY     41  33  73 NE7       29.64F
DULUTH         MOSUNNY   49  35  58 S7        29.68S
RED WING       MOSUNNY   63  36  36 S10G16    29.75S
REDWOOD FALLS  MOSUNNY   64  45  49 SW12      29.70S
MANKATO          N/A     62  45  53 S16       29.72F
WORTHINGTON    SUNNY     63  45  51 SW20      29.73F
FAIRMONT       SUNNY     62  45  53 SW14      29.74F
$$

...SOUTHWEST WISCONSIN...


CITY           SKY/WX    TMP DP  RH WIND       PRES   REMARKS
LA CROSSE      SUNNY     61  38  42 S14       29.82F
PRAIRIE DU CHI MOSUNNY   59  36  41 S5        29.87F
BOSCOBEL       SUNNY     62  32  32 S7        29.88S
LONE ROCK      NOT AVBL
PLATTEVILLE    SUNNY     61  39  44 SW6       29.90S
FORT MC COY    SUNNY     62  31  32 S7        29.85F
MAUSTON-NEW LI CLEAR     62  35  36 SW5       29.85F
VIROQUA        FAIR      57  36  45 S7        29.86F
WIS DELLS      SUNNY     62  31  30 SW8       29.87S
$$

...ELSEWHERE IN WISCONSIN...


CITY           SKY/WX    TMP DP  RH WIND       PRES   REMARKS
MILWAUKEE      MOSUNNY   63  39  41 SE9       29.89S
MADISON        MOSUNNY   61  33  35 S7        29.87F
GREEN BAY      SUNNY     57  45  64 SW7       29.85F
EAU CLAIRE     NOT AVBL
BLACK RVR FLS  FAIR      62  24  23 S8G17     29.81F
MEDFORD        SUNNY     50  40  67 S9        29.81F
WAUSAU         SUNNY     53  36  52 S8        29.82F
WIS RAPIDS     SUNNY     59  36  42 S12       29.85F
MARSHFIELD     SUNNY     56  38  50 S13       29.80F
RICE LAKE      PTSUNNY   54  37  54 SE6       29.76F
$$

...NORTHEAST IOWA...


CITY           SKY/WX    TMP DP  RH WIND       PRES   REMARKS
WATERLOO       CLOUDY    61  42  49 S7        29.86F
DUBUQUE        MOSUNNY   58  40  51 SW7       29.90S
DECORAH        CLOUDY    57  43  58 S8        29.84F
MASON CITY     MOSUNNY   58  48  69 S17       29.80F
CHARLES CITY   CLOUDY    55  46  71 S15       29.83F
OELWEIN        MOSUNNY   57  46  67 S9        29.88F
$$

...ELSEWHERE IN IOWA...


CITY           SKY/WX    TMP DP  RH WIND       PRES   REMARKS
DES MOINES     MOSUNNY   68  32  26 SW13      29.86F
IOWA CITY      SUNNY     66  37  34 MISG      29.91S
FORT DODGE     SUNNY     63  45  51 S17       29.81F
MARSHALLTOWN   SUNNY     63  41  44 S13       29.86F
CEDAR RAPIDS   MOSUNNY   61  44  53 SW6       29.89F
$$

...NORTHERN ILLINOIS...


CITY           SKY/WX    TMP DP  RH WIND       PRES   REMARKS
CHICAGO-OHARE  PTSUNNY   65  51  60 W6        29.89F
CHICAGO-MIDWAY PTSUNNY   65  53  65 W7        29.90S
MOLINE         SUNNY     69  44  40 CALM      29.88F
ROCKFORD       MOSUNNY   66  41  40 CALM      29.91F
PEORIA         CLOUDY    66  56  70 SW5       29.89F
$$

NOTE: "FAIR" INDICATES FEW OR NO CLOUDS BELOW 12,000 FEET WITH NO
SIGNIFICANT WEATHER AND/OR OBSTRUCTIONS TO VISIBILITY. WIND
SPEEDS ARE IN MILES-PER-HOUR.




USA.gov is the U.S. government's official web portal to all federal, state and local government web resources and services.